haerbin , China , ASIA

  • Saturday
    October 20

      Sunny

      36 °F

      Southwest

       

  • Sunday
    October 21

    Sunny  Sunny

    63 °F  43 °F

    Southwest  South

        

  • Monday
    October 22

    Light rain  Cloudy

    61 °F  45 °F

    South  South

    3~4L   3~4L 

  • Tuesday
    October 23

    Cloudy  Sunny

    57 °F  37 °F

    Southwest  Southwest

        

  • Wednesday
    October 24

    Cloudy  Cloudy

    57 °F  36 °F

    Southwest  West

        

  • Thursday
    October 25

    Cloudy  Cloudy

    59 °F  39 °F

    Southeast  Southeast

       3~4L 

  • Friday
    October 26

    Light rain  Sleet

    54 °F  32 °F

    South  West

    4~5L   3~4L 

Date   Weather Temperature Humidity Total_rain Visibility Wind
23:00 Sunny 38°F 83.1% 0mm 999.9km Southwest  2.3m/s
02:00 Sunny 36°F 83.5% 0mm 999.9km Southwest  2.0m/s
05:00 Sunny 37°F 82.2% 0mm 999.9km Southwest  2.0m/s
08:00 Sunny 48°F 75.5% 0mm 999.9km Southwest  2.7m/s
11:00 Sunny 58°F 54.7% 0mm 999.9km Southwest  3.7m/s
14:00 Sunny 62°F 50.1% 0mm 999.9km Southwest  4.1m/s
17:00 Sunny 54°F 59.5% 0mm 999.9km Southwest  2.6m/s
20:00 Sunny 48°F 47.9% 0mm 999.9km Southwest  2.4m/s
23:00 Sunny 44°F 80.6% 0mm 999.9km Southwest  3.2m/s
02:00 Sunny 43°F 85.5% 0mm 999.9km Southwest  2.1m/s
05:00 Sunny 47°F 85.6% 0mm 999.9km Southeast  3.1m/s
08:00 Sunny 51°F 79% 0mm 999.9km Southeast  4.2m/s
11:00 Overcast 59°F 64.4% 0mm 999.9km Southwest  5.2m/s
14:00 Overcast 60°F 62.2% 0mm 999.9km Southwest  5.3m/s
17:00 Light rain 56°F 70.8% 0.2mm 999.9km Southeast  2.9m/s
20:00 Light rain 54°F 59.1% 1.7mm 999.9km Southwest  4.5m/s
23:00 Cloudy 56°F 81.6% 0mm 999.9km Southwest  3.9m/s
02:00 Cloudy 55°F 83.8% 0mm 999.9km Southwest  3.5m/s
05:00 Cloudy 49°F 82.6% 0mm 999.9km Southwest  2.4m/s
08:00 Cloudy 46°F 77.3% 0mm 999.9km Southwest  2.3m/s
11:00 Cloudy 54°F 71.9% 0mm 999.9km Southwest  3.5m/s
14:00 Cloudy 57°F 55.9% 0mm 999.9km Southwest  4.2m/s
17:00 Cloudy 51°F 52.4% 0mm 999.9km Southwest  2.3m/s
20:00 Cloudy 45°F 48.8% 0mm 999.9km Southwest  2.9m/s
23:00 Sunny 44°F 63.6% 0mm 999.9km Southwest  2.7m/s
02:00 Sunny 38°F 67.9% 0mm 999.9km Southwest  2.2m/s
05:00 Sunny 39°F 76.7% 0mm 999.9km Southwest  2.1m/s
08:00 Sunny 47°F 66.6% 0mm 999.9km Southwest  3.4m/s
11:00 Cloudy 48°F 44.5% 0mm 999.9km Southwest  3.3m/s
14:00 Cloudy 57°F 42.8% 0mm 999.9km Southwest  3.8m/s
17:00 Cloudy 50°F 67.6% 0mm 999.9km Southwest  2.8m/s
20:00 Cloudy 50°F 37.2% 0mm 999.9km Southwest  2.5m/s
23:00 Cloudy 41°F 82.6% 0mm 999.9km Southwest  1.9m/s
02:00 Cloudy 36°F 84.3% 0mm 999.9km Southwest  3.3m/s
05:00 Cloudy 36°F 84.4% 0mm 999.9km Southeast  2.5m/s
08:00 Cloudy 48°F 79.7% 0mm 999.9km Southeast  3.2m/s
11:00 Cloudy 58°F 54.6% 0mm 999.9km Southwest  3.4m/s
14:00 Cloudy 59°F 54.6% 0mm 999.9km Southwest  3.6m/s
17:00 Cloudy 56°F 54.5% 0mm 999.9km Southwest  2.8m/s
20:00 Cloudy 48°F 48.7% 0mm 999.9km Southwest  3.4m/s
23:00 Cloudy 48°F 64.4% 0mm 999.9km Southeast  2.7m/s
02:00 Cloudy 45°F 76.1% 0mm 999.9km Southwest  3.0m/s
05:00 Cloudy 46°F 75.6% 0mm 999.9km Southeast  2.7m/s
08:00 Cloudy 47°F 75.1% 0mm 999.9km Southwest  3.7m/s
11:00 Moderate rain 53°F 68.2% 7mm 999.9km Northwest  4.2m/s
14:00 Light rain 52°F 62.3% 0.6mm 999.9km Southwest  3.4m/s
17:00 Overcast 46°F 60.2% 0mm 999.9km Northwest  2.5m/s
20:00 Light rain 40°F 58% 1.8mm 999.9km Southwest  2.6m/s
23:00 Sunny 35°F 78.5% 0mm 999.9km Northwest  3.0m/s
02:00 Sleet 32°F 80.7% 1.5mm 999.9km Southwest  4.2m/s
05:00 Sunny 34°F 75.7% 0mm 999.9km Northwest  3.0m/s